Location: Dziekanowice
(50.3533°N, 20.3878°E)
Time: 05:18:44
(UTC+02:00)

ISS - Visible Passes

Search period start: 28 May 2018 00:00
Search period end: 07 June 2018 00:00
Orbit: 402 x 407 km, 51.6° (Epoch: 28 May)

Date Brightness Start Highest point End Pass type
(mag) Time Alt. Az. Time Alt. Az. Time Alt. Az.
28 May -1.3 01:07:58 10° W 01:08:21 12° W 01:08:21 12° W visible
28 May -3.7 22:38:59 10° WNW 22:42:16 77° N 22:45:05 13° E visible
29 May -2.7 00:15:35 10° W 00:17:42 30° WSW 00:17:42 30° WSW visible
29 May -3.5 21:46:44 10° W 21:50:01 69° N 21:53:17 10° E visible
29 May -3.8 23:23:16 10° WNW 23:26:30 56° SSW 23:27:06 47° SSE visible
30 May -3.9 22:31:01 10° WNW 22:34:17 79° SSW 22:36:31 19° ESE visible
31 May -1.8 00:07:52 10° W 00:09:08 17° WSW 00:09:08 17° WSW visible
31 May -3.8 21:38:45 10° WNW 21:42:02 82° NNE 21:45:19 10° E visible
31 May -3.0 23:15:22 10° W 23:18:21 32° SSW 23:18:34 32° SSW visible
01 Jun -3.5 22:23:00 10° WNW 22:26:11 49° SSW 22:28:02 21° SE visible
02 Jun -3.8 21:30:41 10° WNW 21:33:58 71° SSW 21:37:13 10° ESE visible
02 Jun -2.0 23:07:42 10° W 23:10:02 18° SW 23:10:09 18° SW visible
03 Jun -2.6 22:15:04 10° W 22:17:56 28° SSW 22:19:40 18° SSE visible
04 Jun -3.2 21:22:37 10° W 21:25:45 42° SSW 21:28:52 10° SE visible
05 Jun -1.7 22:07:28 10° W 22:09:31 16° SW 22:11:24 11° S visible
